User: anonymous   Login
Location: The D'Auria's Ocala Star Observatory
(29.0276°N, 82.1742°W)
Time: 03:51:05
(UTC-04:00)
Language:

Okean 3 Rocket - Orbit

View from above orbital plane
View from above orbital plane
View from above satellite
View from above satellite

Ground track
Ground track

The orbit data is extracted from the following two-line orbital elements,

1 21398U 91039B   15091.51989184  .00000581  00000-0  74643-4 0  9998
2 21398 082.5205 257.9038 0020436 312.3185 104.2956 14.79419202284481
Epoch (UTC): 01 April 2015 12:28:38
Eccentricity: 0.0020436
inclination: 82.5205°
perigee height: 617 km
apogee height: 645 km
right ascension of ascending node: 257.9038°
argument of perigee: 312.3185°
revolutions per day: 14.79419202
mean anomaly at epoch: 104.2956°
orbit number at epoch: 28448

The dashed part of the orbit path shows where the satellite is in the earth's shadow,  

DLR